Dewpoint
18 17 16 16 16 15 15 13 12 11 10 10 11 11 11 10 11 8 9 7 5 5 4 3 3 2 2 -1 -2 -4 3 8 -0 8 10 12 15 11 6 6 6 9 13 14 14 12 16 14 10 7 6 9 12 14 15 17 20 21 22 21 21 20 20 21 21 21 21 20 21 21 21 20 21 21 19 19 19 20 21 21 21 21 21 22 23
15 15 15 16 14 17 16 14 16 12 12 10 11 11 11 11 10 8 9 8 5 5 4 1 2 2 -1 0 -4 -1 -3 1 4 4 11 8 12 9 4 4 4 7 11 11 12 12 6 4 3 3 3 4 9 9 10 18 13 17 18 18 19 18 18 19 21 21 19 19 18 17 17 18 20 22 20 20 19 18 20 21 21 21 20 20 20
12 12 15 15 19 18 14 13 12 13 12 11 11 11 12 12 11 11 10 11 7 7 6 2 0 2 -2 -1 -2 1 -0 1 4 8 9 9 6 4 2 3 2 4 7 5 8 12 3 2 2 3 3 7 5 5 5 5 8 11 15 14 13 14 16 19 18 18 18 18 18 17 14 14 17 16 15 18 18 18 21 20 21 19 18 19 20
13 12 13 14 16 16 18 17 14 15 14 12 11 12 12 13 11 11 11 11 10 8 7 4 3 3 1 3 2 1 2 6 3 5 6 5 3 1 -2 0 1 3 5 3 4 9 4 2 2 3 3 4 4 2 2 3 5 10 6 7 6 5 7 9 12 13 15 16 16 16 16 14 13 12 16 16 16 15 16 18 18 18 18 17 20
14 14 14 15 16 17 17 19 17 16 15 14 13 12 12 12 12 12 12 12 11 9 3 5 4 2 2 3 4 6 6 6 4 5 2 4 5 0 -5 -2 1 3 5 3 5 9 6 4 4 3 3 2 2 1 2 3 5 3 2 4 3 3 4 5 6 8 11 15 17 16 15 12 13 14 15 14 15 16 16 16 19 20 17 17 19
16 15 16 17 17 18 17 18 17 16 16 16 15 14 13 13 13 11 12 15 14 8 3 4 1 1 -1 0 -2 -2 -1 1 -0 1 1 -2 -3 -4 -7 -6 -2 0 3 4 3 9 7 5 3 2 2 1 3 2 1 3 1 1 1 2 1 1 3 4 7 7 10 11 12 16 16 15 15 15 14 13 16 16 16 16 16 15 16 18 17
17 16 17 17 18 18 17 16 17 17 16 17 15 15 14 13 14 11 10 12 13 5 3 2 -1 -2 -2 -4 -3 -2 -3 -1 0 0 0 -2 2 -9 -9 -9 -5 -4 -3 2 3 4 6 4 2 1 -0 -2 -1 1 1 -1 1 1 3 0 -0 3 1 5 4 2 1 3 7 6 7 11 12 12 13 12 12 13 14 14 14 14 14 15 17
17 17 17 18 19 19 17 17 16 16 17 17 16 14 13 12 12 11 9 8 8 6 7 1 2 0 -1 -4 -3 0 -5 -5 0 -1 -1 1 -7 -11 -12 -11 -9 -7 -6 -3 1 3 4 1 -1 -1 -2 -5 -0 -1 -1 -3 -0 1 0 -0 -1 0 -0 2 1 0 3 4 6 5 6 9 9 10 12 12 13 11 11 13 13 14 14 15 16
17 18 18 19 19 19 18 17 15 15 15 15 15 14 13 11 11 10 8 6 5 5 5 -1 -0 -0 -3 -4 -8 -6 -5 -1 2 1 -3 -3 -10 -12 -15 -14 -12 -10 -7 -4 -1 2 -2 -2 -3 -5 -7 -7 -2 -1 -6 -5 -6 -6 -5 -6 -5 -3 -3 -1 5 3 2 1 -0 1 2 3 2 2 3 5 9 11 9 9 8 10 10 11 13
18 18 20 20 19 19 17 17 16 16 15 17 15 14 13 11 10 8 6 4 3 2 3 1 2 -1 -2 -4 -7 -9 -7 -4 -2 -4 -5 -7 -10 -13 -15 -15 -15 -14 -11 -8 -5 -3 -4 -6 -5 -9 -10 -9 5 -8 -8 -10 -9 -9 -8 -8 -6 -5 -5 -3 1 2 0 -0 -1 -1 3 5 5 6 4 5 7 9 9 9 10 10 9 10 14
20 20 19 20 20 18 18 17 17 16 15 14 14 14 12 10 9 6 5 5 3 1 2 1 0 -4 -3 -5 -7 -10 -9 -7 -4 -4 -6 -8 -10 -14 -16 -16 -15 -15 -13 -12 -10 -7 -9 -7 -11 -11 -9 -2 -7 -12 -12 -11 -11 -10 -10 -10 -9 -8 -7 -5 -3 -1 -0 2 1 2 1 1 3 3 5 5 4 5 5 4 5 6 7 7 8
21 21 20 19 19 18 18 18 18 17 15 14 12 13 14 10 6 5 5 4 3 3 1 1 -1 -2 -3 -6 -11 -12 -10 -8 -7 -6 -6 -8 -10 -14 -16 -15 -14 -14 -13 -14 -14 -13 -11 -12 -10 -12 -10 -12 -12 -11 -11 -11 -10 -10 -9 -8 -7 -9 -8 -5 -5 -3 -3 1 1 1 1 0 0 0 0 1 1 1 -0 -1 -1 -0 -0 2 6
22 21 20 21 20 20 19 19 18 17 16 13 10 11 12 8 3 3 3 3 2 1 1 0 -3 -3 -7 -11 -12 -6 -8 -11 -10 -7 -7 -8 -10 -14 -15 -15 -14 -14 -14 -14 -14 -13 -10 -11 -12 -11 -12 -11 -10 -11 -11 -10 -10 -9 -10 -9 -9 -8 -8 -7 -5 -5 -4 -3 1 0 1 2 2 2 1 1 2 5 3 2 0 -0 -2 -3 -2
23 22 22 22 23 22 21 20 19 18 16 13 10 10 9 7 3 0 0 1 1 1 -0 -1 -3 -3 -7 -9 -13 -12 -14 -12 -11 -9 -7 -8 -9 -12 -14 -14 -14 -14 -14 -14 -14 -12 -12 -12 -12 -11 -10 -10 -10 -9 -10 -10 -10 -10 -9 -10 -10 -10 -9 -8 -6 -5 -5 -5 -4 1 1 3 3 1 0 0 1 4 3 4 4 3 1 1 0
24 24 25 25 25 23 21 20 20 18 15 13 9 6 6 3 1 1 -0 -0 -2 -2 -1 -3 -7 -6 -10 -9 -12 -12 -13 -12 -12 -6 -6 -7 -9 -12 -13 -14 -13 -13 -14 -13 -9 -13 -12 -11 -11 -10 -10 -10 -10 -11 -10 -10 -10 -9 -8 -8 -8 -9 -10 -7 -6 -6 -5 -4 -4 -1 1 -1 -1 -2 -2 -1 -1 1 3 3 3 2 2 4 4
25 25 26 27 26 23 21 21 20 17 14 11 9 5 4 3 2 0 -1 -2 -5 1 -7 -8 -9 -10 -11 -12 -14 -8 -4 -9 -8 -6 -9 -8 -9 -11 -12 -13 -14 -14 -14 -13 -14 -13 -12 -12 -11 -11 -10 -11 -11 -10 -10 -10 -9 -9 -7 -8 -8 -9 -9 -9 -8 -8 -7 -6 -5 -4 0 0 -1 -1 -1 -1 -1 -0 0 1 2 2 0 -1 1
25 26 27 27 26 24 22 21 20 17 14 9 7 5 4 3 2 -1 -4 -5 -9 -5 -14 -13 -11 -11 -10 -12 -14 -14 -13 -13 -13 -14 -13 -9 -8 -11 -13 -14 -14 -13 -14 -12 -13 -13 -11 -11 -11 -11 -11 -11 -11 -10 -10 -10 -10 -10 -9 -8 -8 -8 -8 -9 -9 -8 -8 -8 -6 -4 -1 0 -0 -0 -0 1 1 1 3 3 3 3 3 1 -1
26 26 27 27 26 25 23 22 20 18 13 9 6 5 4 3 0 -5 -5 -8 -11 -15 -15 -15 -13 -10 -11 -12 -13 -13 -14 -14 -14 -13 -13 -11 -11 -11 -12 -13 -14 -14 -12 -13 -11 -13 -13 -8 -11 -11 -10 -11 -11 -11 -11 -11 -10 -10 -10 -10 -10 -10 -9 -8 -7 -7 -7 -7 -4 -4 -3 -1 0 -1 0 -0 1 3 3 3 2 3 3 2 1
24 24 24 25 26 25 24 22 21 18 15 8 6 5 3 0 -2 -5 -7 -7 -9 -13 -15 -14 -13 -12 -12 -11 -13 -13 -14 -14 -13 -11 -11 -12 -12 -13 -13 -13 -13 -12 -9 -13 -13 -13 -13 -12 -13 -12 -11 -12 -12 -12 -10 -11 -11 -10 -10 -10 -11 -11 -10 -9 -8 -8 -8 -7 -7 -6 -5 -3 -2 -0 1 2 2 3 3 4 4 4 4 3 3
22 21 21 22 23 24 24 23 21 18 13 8 5 4 1 -1 -2 -3 -3 -6 -9 -11 -11 -13 -14 -12 -12 -12 -13 -13 -12 -13 -13 -13 -14 -13 -13 -13 -13 -13 -13 -9 -12 -13 -13 -13 -12 -13 -12 -12 -12 -11 -12 -10 -10 -11 -10 -10 -10 -10 -10 -10 -10 -10 -10 -9 -9 -8 -7 -6 -5 -4 -3 -2 0 1 1 2 2 3 3 3 3 3 3
22 21 20 21 22 22 23 22 21 17 12 7 3 2 0 -2 -4 -4 -6 -7 -9 -9 -12 -14 -13 -14 -11 -13 -14 -14 -14 -13 -14 -14 -13 -13 -13 -8 -12 -13 -12 -13 -13 -13 -13 -13 -13 -12 -12 -11 -11 -12 -11 -11 -11 -11 -10 -10 -10 -10 -10 -10 -10 -10 -9 -9 -9 -8 -6 -4 -4 -4 -4 -2 -1 1 1 1 2 2 2 2 2 3 2
22 21 21 21 20 21 23 22 19 13 9 5 2 1 -1 -3 -4 -6 -7 -8 -9 -9 -11 -13 -13 -14 -14 -14 -14 -15 -14 -14 -14 -14 -12 -13 -13 -13 -14 -13 -14 -14 -13 -13 -13 -13 -12 -12 -12 -11 -11 -11 -11 -10 -10 -10 -10 -9 -10 -10 -10 -9 -9 -9 -8 -8 -8 -7 -6 -4 -4 -2 -3 -1 -1 -0 0 1 1 1 2 2 2 2 3
22 21 21 20 19 16 14 14 12 9 7 4 2 -0 -2 -3 -4 -5 -6 -8 -10 -10 -11 -12 -13 -14 -14 -14 -14 -15 -15 -14 -13 -13 -13 -13 -14 -14 -12 -13 -13 -12 -12 -12 -12 -12 -11 -12 -12 -11 -10 -10 -11 -11 -10 -9 -9 -9 -8 -8 -9 -9 -8 -8 -8 -7 -6 -5 -3 -3 -4 -3 -2 -1 -1 -0 0 0 1 1 1 2 2 2 2
22 21 18 17 16 14 12 13 11 9 6 4 2 0 -2 -3 -4 -5 -6 -9 -11 -12 -11 -11 -13 -14 -14 -14 -15 -15 -14 -14 -14 -14 -14 -14 -14 -14 -11 -13 -13 -12 -12 -12 -12 -12 -12 -12 -11 -11 -11 -10 -10 -9 -8 -8 -7 -8 -8 -8 -8 -8 -7 -7 -6 -5 -4 -4 -4 -4 -3 -2 -2 -2 -1 -1 -0 1 1 1 1 1 2 2 2
16 16 16 15 15 14 13 12 12 12 10 7 4 1 -1 -2 -3 -5 -7 -10 -13 -13 -13 -13 -13 -13 -14 -14 -14 -14 -14 -14 -14 -14 -15 -15 -14 -14 -12 -12 -12 -12 -13 -12 -11 -11 -11 -11 -10 -10 -10 -10 -9 -9 -8 -8 -8 -7 -8 -7 -7 -6 -5 -5 -5 -5 -3 -4 -4 -4 -3 -2 -2 -2 -1 -1 -0 -0 0 1 1 2 2 3 3
15 16 16 15 15 13 10 10 11 12 11 9 5 0 -0 -1 -2 -4 -6 -10 -14 -14 -14 -13 -14 -14 -14 -14 -14 -15 -15 -15 -15 -15 -15 -14 -12 -13 -13 -13 -12 -13 -13 -12 -11 -10 -9 -9 -10 -10 -10 -9 -9 -9 -7 -8 -8 -8 -8 -7 -5 -5 -5 -5 -4 -4 -4 -3 -3 -2 -2 -2 -1 -2 -2 -1 -0 -1 0 1 1 2 2 3 3
10 10 11 11 12 12 11 10 8 10 10 9 5 1 0 -1 -2 -3 -7 -11 -14 -14 -14 -14 -14 -14 -14 -14 -14 -15 -15 -15 -14 -14 -14 -13 -14 -13 -13 -13 -12 -12 -11 -10 -10 -10 -9 -9 -9 -9 -9 -8 -8 -8 -8 -9 -8 -8 -7 -6 -6 -5 -5 -5 -5 -5 -4 -3 -3 -2 -2 -2 -2 -2 -2 -2 -1 -1 -0 0 1 2 3 3 3
11 11 10 11 12 12 11 9 9 9 10 9 6 2 1 -0 -2 -3 -6 -10 -13 -14 -14 -14 -13 -14 -14 -14 -14 -14 -15 -14 -15 -14 -13 -13 -12 -13 -12 -12 -10 -11 -9 -9 -9 -8 -9 -8 -9 -9 -9 -8 -8 -7 -7 -7 -7 -7 -7 -7 -7 -6 -6 -6 -5 -5 -4 -4 -3 -3 -3 -2 -2 -2 -2 -2 -1 -1 -0 0 2 3 3 3 3
8 8 10 10 10 10 10 9 9 9 9 9 6 2 1 -0 -2 -4 -6 -10 -12 -13 -13 -13 -13 -13 -14 -14 -14 -14 -15 -14 -13 -13 -13 -13 -13 -12 -11 -10 -10 -9 -7 -8 -8 -8 -8 -8 -9 -8 -8 -8 -8 -8 -9 -8 -9 -8 -8 -7 -7 -6 -6 -5 -4 -4 -3 -2 -2 -1 -1 -1 0 2 3 3 3 3 0 0 2 3 3 4 4
9 9 10 10 10 10 10 9 9 8 8 7 6 3 1 0 -1 -3 -6 -10 -12 -14 -14 -14 -14 -13 -14 -14 -14 -14 -14 -14 -14 -13 -13 -13 -12 -11 -9 -10 -10 -10 -10 -8 -9 -8 -8 -9 -9 -9 -9 -9 -9 -9 -7 -0 6 -0 -1 -1 -2 -2 -3 -3 -2 -2 -1 -0 0 1 1 3 4 4 5 5 6 7 7 5 3 3 4 4 4
10 10 10 11 11 12 11 10 9 8 8 7 5 3 1 -0 -1 -3 -6 -9 -13 -14 -14 -14 -13 -13 -14 -14 -14 -14 -14 -13 -13 -13 -12 -12 -11 -11 -11 -11 -11 -11 -10 -9 -8 -8 -10 -9 -10 -10 -10 -10 -10 -10 2 9 11 12 7 5 4 4 3 3 2 2 2 2 3 3 3 4 5 6 6 7 8 9 10 11 11 11 10 7 5
11 10 11 12 12 12 12 10 9 8 8 7 5 2 1 -0 -2 -4 -7 -9 -12 -13 -14 -14 -13 -13 -13 -13 -13 -13 -13 -12 -12 -12 -12 -11 -11 -11 -11 -9 -11 -10 -9 -10 -10 -10 -10 -10 -10 -11 -11 -10 -10 -4 8 10 12 13 10 4 6 5 4 2 2 3 2 2 3 3 5 6 6 7 7 7 8 10 11 12 12 12 13 14 14
11 11 12 13 13 12 11 10 9 8 8 5 3 2 1 -0 -2 -5 -7 -10 -12 -13 -13 -13 -13 -13 -13 -13 -12 -13 -12 -12 -9 -10 -9 -10 -11 -9 -11 -13 -12 -11 -11 -11 -9 -9 -11 -11 -11 -11 -11 -11 -11 2 8 10 11 9 10 9 4 3 3 3 3 2 2 2 3 3 4 5 4 7 7 7 7 8 11 12 13 13 12 14 14
12 12 11 11 12 12 11 10 10 10 9 6 4 2 0 -1 -3 -5 -8 -10 -12 -13 -13 -12 -11 -11 -11 -11 -11 -11 -10 -9 -10 -10 -9 -9 -10 -10 -10 -11 -11 -10 -10 -11 -11 -11 -10 -11 -12 -12 -12 -11 -11 -3 8 10 12 10 11 9 2 2 2 1 1 2 3 4 4 4 4 3 4 5 5 6 6 7 8 8 8 8 8 9 11
11 11 11 11 11 12 11 11 11 10 9 7 3 0 -2 -3 -4 -6 -8 -10 -11 -12 -11 -11 -10 -9 -9 -9 -9 -9 -8 -10 -10 -9 -9 -10 -10 -10 -10 -10 -11 -10 -10 -12 -12 -13 -13 -12 -12 -12 -12 -12 -12 4 9 10 11 5 6 7 1 2 2 1 1 1 3 4 4 4 4 4 4 4 5 6 6 7 7 6 6 6 7 9 10
12 12 13 13 13 13 12 12 13 11 9 6 2 -0 -1 -1 -4 -5 -6 -8 -10 -11 -10 -10 -9 -9 -8 -9 -8 -8 -8 -8 -9 -9 -10 -10 -10 -11 -12 -12 -11 -11 -11 -11 -12 -12 -12 -13 -12 -12 -13 -13 -12 6 9 11 9 7 11 -0 2 1 1 1 1 1 2 3 3 4 4 4 4 4 6 10 11 8 7 6 6 7 9 9 9
16 15 14 15 15 13 13 13 10 7 5 3 2 1 0 -1 -3 -6 -6 -8 -9 -9 -9 -8 -6 -8 -8 -7 -8 -8 -9 -9 -10 -9 -9 -10 -9 -11 -11 -12 -13 -11 -11 -12 -13 -13 -12 -12 -12 -12 -13 -12 -12 -2 7 10 8 8 8 1 1 1 1 -0 -1 0 2 3 3 3 3 2 3 4 6 11 12 9 6 6 7 7 8 8 8
15 15 15 15 14 13 12 6 5 4 3 3 2 2 0 -2 -3 -5 -7 -8 -8 -7 -7 -7 -7 -8 -6 -6 -6 -7 -9 -9 -9 -9 -9 -9 -10 -10 -11 -11 -12 -13 -12 -13 -13 -13 -13 -12 -12 -13 -12 -12 -12 -4 7 10 8 9 8 1 1 -0 -1 0 1 2 1 1 2 2 2 2 3 4 9 10 12 8 6 6 6 6 6 6 6
15 14 13 13 13 12 10 6 4 4 3 3 3 2 1 -1 -2 -4 -6 -6 -6 -5 -5 -6 -6 -7 -6 -7 -9 -9 -10 -10 -9 -9 -9 -10 -10 -10 -11 -12 -12 -13 -13 -13 -12 -13 -13 -12 -12 -12 -9 -10 -11 -10 4 8 10 7 4 -1 0 -0 1 0 -0 -1 -1 -1 0 1 3 3 3 5 10 11 12 9 6 6 6 6 5 6 7
12 11 12 12 11 10 10 6 5 5 4 3 3 2 1 -0 -1 -3 -4 -4 -4 -5 -6 -6 -5 -5 -6 -6 -8 -9 -9 -9 -8 -9 -9 -10 -11 -11 -12 -12 -12 -12 -12 -12 -12 -13 -14 -13 -12 -12 -12 -12 -13 -12 -9 6 9 7 5 2 2 1 -0 -1 -1 -2 -2 -1 -0 0 2 5 7 8 10 11 12 13 7 7 7 6 5 5 6
11 12 17 12 9 9 8 7 6 5 4 4 3 2 1 0 -1 -3 -4 -4 -4 -4 -5 -5 -5 -6 -7 -7 -8 -9 -9 -9 -8 -9 -9 -10 -11 -11 -11 -13 -13 -13 -13 -14 -14 -14 -14 -14 -14 -13 -13 -13 -12 -12 -10 6 9 7 9 6 0 0 0 -0 -1 -0 -1 -2 -3 -3 -3 -1 4 8 9 11 12 13 13 6 6 6 6 7 11
13 14 14 13 12 11 8 7 7 5 5 4 2 2 1 -0 -2 -3 -3 -2 -4 -3 -4 -6 -6 -6 -7 -7 -7 -8 -8 -9 -9 -10 -12 -11 -11 -12 -12 -13 -14 -14 -15 -16 -16 -15 -15 -15 -14 -14 -14 -13 -11 -9 -10 0 6 8 8 8 1 -0 1 -0 -1 -2 -4 -5 -5 -5 -4 -2 2 8 10 11 12 12 12 6 5 12 13 13 7
11 11 13 14 13 11 9 8 7 6 6 5 4 1 0 -1 -3 -3 -3 -4 -4 -5 -5 -5 -6 -6 -7 -8 -8 -9 -9 -10 -11 -11 -12 -13 -13 -14 -14 -14 -15 -16 -17 -18 -18 -17 -17 -17 -16 -14 -13 -12 -11 -10 -7 -8 -1 6 7 8 7 4 6 -0 -2 -6 -7 -6 -5 -4 -3 -1 6 9 10 10 10 11 9 4 12 13 12 12 9
11 13 13 12 11 10 10 9 8 6 5 4 3 1 -0 -2 -3 -3 -3 -4 -4 -5 -5 -5 -6 -7 -8 -8 -9 -10 -9 -10 -11 -11 -12 -13 -14 -14 -15 -14 -15 -16 -17 -17 -16 -16 -16 -16 -16 -15 -14 -12 -12 -11 -7 -7 -7 3 6 7 7 7 6 -0 -4 -7 -7 -6 -5 -5 -3 6 8 8 9 10 10 9 2 10 10 10 6 5 1
11 12 11 11 10 9 8 8 7 6 5 4 2 -0 -1 -3 -3 -3 -3 -4 -5 -6 -5 -6 -7 -8 -8 -10 -9 -9 -9 -10 -10 -11 -13 -13 -14 -15 -16 -15 -15 -16 -16 -17 -16 -15 -16 -15 -15 -15 -15 -14 -12 -11 -11 -8 -8 -7 4 6 6 6 2 -3 -6 -7 -5 -5 -1 6 7 8 8 8 8 7 3 1 7 7 2 2 2 -2 -3
11 11 11 11 10 8 7 6 6 5 5 4 2 -0 -2 -2 -3 -3 -4 -5 -5 -6 -7 -7 -7 -8 -9 -10 -11 -11 -11 -11 -11 -11 -12 -13 -14 -15 -15 -16 -15 -15 -16 -16 -16 -16 -16 -16 -16 -15 -15 -14 -13 -13 -12 -12 -7 -8 -7 -2 3 -2 -5 -4 -4 -6 -4 0 5 3 4 0 -2 -3 -6 -6 -6 -6 -3 -2 -2 -3 -6 -5 -4
10 10 10 8 7 6 6 5 4 4 4 2 1 -0 -1 -3 -4 -3 -4 -5 -6 -6 -7 -8 -8 -9 -10 -10 -11 -11 -11 -11 -11 -11 -11 -12 -12 -13 -15 -15 -15 -16 -17 -17 -16 -16 -16 -16 -16 -16 -15 -14 -14 -13 -13 -13 -12 -11 -11 -10 -9 -9 -5 -4 -6 -6 -4 -5 -4 -3 -3 -3 -5 -5 -5 -5 -6 -7 -8 -9 -9 -8 -7 -7 -6
9 8 8 6 6 5 5 4 3 3 3 2 0 -1 -2 -3 -3 -3 -5 -6 -6 -6 -7 -8 -9 -9 -10 -11 -11 -11 -11 -11 -12 -12 -13 -13 -13 -13 -14 -15 -15 -16 -18 -17 -17 -17 -17 -17 -17 -17 -16 -15 -14 -13 -13 -13 -12 -12 -12 -11 -10 -6 -6 -6 -6 -6 -5 -4 -5 -3 -7 -10 -11 -11 -11 -14 -13 -12 -11 -10 -11 -11 -10 -8 -5
6 5 6 5 5 4 4 3 2 2 1 0 -1 -1 -3 -2 -2 -4 -4 -5 -6 -7 -8 -9 -10 -10 -11 -11 -11 -12 -12 -12 -13 -13 -13 -13 -14 -14 -14 -15 -15 -15 -16 -17 -17 -17 -16 -17 -17 -16 -16 -15 -13 -12 -12 -5 -7 -5 -5 -5 -5 -5 -5 -5 -3 -3 -5 -5 -9 -11 -13 -13 -16 -13 -14 -15 -15 -15 -14 -13 -13 -13 -12 -11 -10
5 5 5 4 4 4 3 2 1 1 0 -1 -2 -2 -4 -3 -4 -5 -5 -6 -7 -8 -10 -10 -10 -11 -12 -12 -12 -12 -13 -12 -13 -13 -14 -14 -11 -9 -10 -14 -15 -11 -9 -5 -1 -11 -14 -15 -14 -13 -12 -12 -12 -11 0 5 3 2 -3 -3 -2 -1 -1 -4 -3 -2 -4 -9 -16 -17 -16 -17 -16 -19 -17 -16 -16 -16 -16 -15 -15 -12 -13 -12 -11
4 4 4 3 3 3 2 1 0 -0 -1 -1 -2 -4 -5 -4 -3 -3 -5 -7 -8 -9 -10 -11 -11 -12 -12 -12 -12 -12 -12 -12 -13 -14 -16 -16 -17 -14 1 4 -2 -3 -3 5 3 -2 -1 -5 -4 -6 -5 -2 -2 0 3 3 1 0 -4 -1 -2 -2 -2 -2 -2 -5 -10 -16 -18 -19 -18 -18 -18 -20 -19 -17 -16 -17 -16 -16 -16 -15 -14 -13 -12